Marshall, TX

8:54 PM CDT on October 19, 2019 (GMT -0500)
Harrison County

Weather History for KASL - August, 2019

Change the Weather History Date:

Thursday, August 1, 2019

  Actual Average (KGGG) Record (KGGG)
Temperature  
Mean Temperature 81 °F -  
Max Temperature 92 °F 93 °F 108 °F (2011)
Min Temperature 70 °F 71 °F 59 °F (1971)
Cooling Degree Days 16    
Growing Degree Days 31 (Base 50)    
Moisture  
Dew Point 71 °F    
Average Humidity 75    
Maximum Humidity 93    
Minimum Humidity 45    
Precipitation  
Precipitation 0.00 in - - ()
Sea Level Pressure  
Sea Level Pressure 30.06 in    
Wind  
Wind Speed 0 mph (North)    
Max Wind Speed 0 mph    
Max Gust Speed -    
Visibility 9 miles    
Events      
Averages and records for this station are not official NWS values.
T = Trace of Precipitation, MM = Missing Value Source: NWS Daily Summary

Daily Weather History Graph

Daily Weather History Graph

Search for Another Location

Airport or City:

Astronomy

Aug. 01, 2019 Rise Set
Actual Time 6:31 AM CDT 8:15 PM CDT
Civil Twilight 6:04 AM CDT 8:42 PM CDT
Nautical Twilight 5:32 AM CDT 9:14 PM CDT
Astronomical Twilight 4:58 AM CDT 9:48 PM CDT
Moon 6:57 AM CDT (8/1) 9:04 PM CDT (8/1)
Length of Visible Light 14h 37m
Length of Day
13h 43m
New Moon, 1% of the Moon is Illuminated
Aug 1
New Moon
Aug 7
First Quarter
Aug 15
Full
Aug 23
Last Quarter
Aug 30
New

Hourly Weather History & Observations

Time (CDT) Temp. Heat Index Dew Point Humidity Pressure Visibility Wind Dir Wind Speed Gust Speed Precip Events Conditions
12:15 AM 75.2 °F - 71.2 °F 87% 30.04 in 10.0 mi North - - N/A   Clear
12:35 AM 75.2 °F - 71.6 °F 89% 30.04 in 10.0 mi North - - N/A   Clear
12:55 AM 73.6 °F - 70.3 °F 90% 30.05 in 10.0 mi North - - N/A   Clear
1:15 AM 73.0 °F - 70.0 °F 90% 30.04 in 10.0 mi North - - N/A   Clear
1:35 AM 73.0 °F - 70.2 °F 91% 30.05 in 10.0 mi North - - N/A   Clear
1:55 AM 72.5 °F - 69.8 °F 91% 30.05 in 10.0 mi Calm Calm - N/A   Clear
2:15 AM 72.5 °F - 69.8 °F 91% 30.05 in 10.0 mi Calm Calm - N/A   Clear
2:35 AM 72.5 °F - 70.0 °F 92% 30.04 in 10.0 mi Calm Calm - N/A   Clear
2:55 AM 72.5 °F - 70.2 °F 92% 30.04 in 10.0 mi Calm Calm - N/A   Clear
3:15 AM 72.5 °F - 70.2 °F 92% 30.04 in 10.0 mi Calm Calm - N/A   Clear
3:35 AM 72.5 °F - 70.2 °F 92% 30.04 in 10.0 mi Calm Calm - N/A   Clear
3:55 AM 72.5 °F - 70.2 °F 92% 30.04 in 10.0 mi Calm Calm - N/A   Clear
4:15 AM 72.1 °F - 69.6 °F 92% 30.04 in 7.0 mi Calm Calm - N/A   Clear
4:35 AM 72.0 °F - 70.0 °F 93% 30.04 in 7.0 mi North - - N/A   Clear
4:55 AM 71.2 °F - 69.1 °F 93% 30.04 in 7.0 mi North - - N/A   Clear
5:35 AM 70.0 °F - 68.0 °F 93% 30.04 in 7.0 mi North - - N/A   Clear
5:55 AM 70.0 °F - 68.0 °F 93% 30.05 in 7.0 mi North - - N/A   Clear
6:15 AM 70.0 °F - 68.0 °F 93% 30.06 in 5.0 mi North - - N/A   Unknown
6:35 AM 70.2 °F - 68.2 °F 93% 30.07 in 7.0 mi North - - N/A   Clear
6:55 AM 71.2 °F - 69.1 °F 93% 30.08 in 7.0 mi North - - N/A   Clear
7:15 AM 72.5 °F - 70.3 °F 93% 30.08 in 7.0 mi North - - N/A   Clear
7:35 AM 72.5 °F - 70.3 °F 93% 30.09 in 10.0 mi North - - N/A   Clear
7:55 AM 74.5 °F - 71.8 °F 91% 30.09 in 10.0 mi North - - N/A   Clear
8:15 AM 75.2 °F - 71.6 °F 89% 30.10 in 10.0 mi North - - N/A   Clear
8:35 AM 76.1 °F - 72.3 °F 88% 30.10 in 7.0 mi North - - N/A   Clear
8:55 AM 76.3 °F - 72.1 °F 87% 30.10 in 10.0 mi Calm Calm - N/A   Clear
9:15 AM 77.4 °F - 72.7 °F 85% 30.11 in 2.0 mi Calm Calm - N/A   Clear
9:35 AM 77.4 °F - 72.9 °F 86% 30.11 in 7.0 mi North - - N/A   Clear
9:55 AM 77.4 °F - 73.0 °F 86% 30.11 in 10.0 mi North - - N/A   Clear
10:15 AM 78.8 °F - 73.6 °F 84% 30.12 in 10.0 mi North - - N/A   Clear
10:35 AM 84.7 °F 94.4 °F 76.5 °F 76% 30.11 in 2.0 mi North - - N/A   Clear
10:55 AM 85.1 °F 91.8 °F 73.2 °F 67% 30.11 in 0.2 mi North - - N/A   Unknown
11:15 AM 85.1 °F 90.4 °F 71.1 °F 63% 30.12 in 4.0 mi North - - N/A   Clear
11:35 AM 87.6 °F 93.1 °F 70.9 °F 57% 30.12 in 1.5 mi North - - N/A   Unknown
11:55 AM 89.6 °F 97.7 °F 72.9 °F 58% 30.11 in 10.0 mi North - - N/A   Clear
12:15 PM 90.0 °F 97.4 °F 72.1 °F 56% 30.11 in 10.0 mi North - - N/A   Clear
12:35 PM 90.0 °F 95.9 °F 70.7 °F 53% 30.11 in 10.0 mi North - - N/A   Clear
12:55 PM 90.0 °F 96.9 °F 72.0 °F 55% 30.11 in 10.0 mi North - - N/A   Clear
1:15 PM 90.0 °F 96.4 °F 71.1 °F 54% 30.10 in 10.0 mi North - - N/A   Clear
1:35 PM 91.0 °F 95.6 °F 69.1 °F 48% 30.10 in 10.0 mi North - - N/A   Clear
1:55 PM 92.5 °F 97.9 °F 69.4 °F 47% 30.09 in 10.0 mi North - - N/A   Clear
2:15 PM 92.5 °F 96.9 °F 68.4 °F 45% 30.08 in 10.0 mi North - - N/A   Scattered Clouds
2:35 PM 90.0 °F 95.4 °F 70.0 °F 52% 30.07 in 10.0 mi North - - N/A   Overcast
2:55 PM 90.0 °F 94.1 °F 68.7 °F 49% 30.07 in 10.0 mi North - - N/A   Mostly Cloudy
3:15 PM 92.5 °F 97.9 °F 69.8 °F 47% 30.06 in 10.0 mi North - - N/A   Scattered Clouds
3:35 PM 90.3 °F 95.2 °F 69.3 °F 50% 30.05 in 10.0 mi North - - N/A   Scattered Clouds
3:55 PM 90.0 °F 95.0 °F 69.4 °F 51% 30.04 in 10.0 mi North - - N/A   Scattered Clouds
4:15 PM 90.0 °F 95.0 °F 69.8 °F 51% 30.03 in 10.0 mi North - - N/A   Clear
4:35 PM 90.0 °F 95.4 °F 70.3 °F 52% 30.03 in 10.0 mi North - - N/A   Clear
4:55 PM 90.0 °F 95.9 °F 70.7 °F 53% 30.02 in 10.0 mi North - - N/A   Clear
5:15 PM 90.0 °F 96.4 °F 71.4 °F 54% 30.01 in 10.0 mi North - - N/A   Clear
5:35 PM 90.0 °F 97.4 °F 72.3 °F 56% 30.01 in 10.0 mi North - - N/A   Clear
5:55 PM 90.0 °F 96.9 °F 71.6 °F 55% 30.01 in 10.0 mi North - - N/A   Clear
6:15 PM 90.0 °F 95.9 °F 70.9 °F 53% 30.01 in 10.0 mi North - - N/A   Clear
6:35 PM 90.0 °F 96.9 °F 71.6 °F 55% 30.01 in 10.0 mi North - - N/A   Clear
6:55 PM 90.0 °F 97.9 °F 72.9 °F 57% 30.00 in 10.0 mi North - - N/A   Clear
7:15 PM 86.4 °F 92.2 °F 71.6 °F 61% 30.01 in 10.0 mi Calm Calm - N/A   Clear
7:35 PM 86.2 °F 92.6 °F 72.3 °F 63% 30.00 in 10.0 mi North - - N/A   Clear
7:55 PM 85.1 °F 91.5 °F 72.7 °F 66% 30.00 in 10.0 mi North - - N/A   Clear
8:15 PM 85.1 °F 92.9 °F 74.3 °F 70% 30.00 in 10.0 mi Calm Calm - N/A   Clear
8:35 PM 82.6 °F 88.6 °F 73.6 °F 74% 30.00 in 10.0 mi Calm Calm - N/A   Clear
8:55 PM 79.5 °F - 72.7 °F 79% 30.01 in 10.0 mi North - - N/A   Clear
9:15 PM 79.5 °F - 72.7 °F 79% 30.01 in 10.0 mi North - - N/A   Clear
9:35 PM 78.8 °F - 72.7 °F 81% 30.03 in 10.0 mi North - - N/A   Clear
9:55 PM 78.8 °F - 72.9 °F 82% 30.03 in 10.0 mi North - - N/A   Clear
10:15 PM 78.3 °F - 73.0 °F 84% 30.04 in 10.0 mi North - - N/A   Clear
10:35 PM 78.4 °F - 73.4 °F 84% 30.04 in 10.0 mi North - - N/A   Clear
10:55 PM 78.1 °F - 73.4 °F 85% 30.05 in 10.0 mi Calm Calm - N/A   Clear
11:15 PM 77.9 °F - 73.4 °F 86% 30.04 in 10.0 mi North - - N/A   Clear
11:35 PM 77.9 °F - 73.0 °F 85% 30.05 in 10.0 mi North - - N/A   Scattered Clouds
11:55 PM 77.9 °F - 72.7 °F 84% 30.05 in 10.0 mi North - - N/A   Clear